| time (UTC) | temp F | wind direction | speed MPH | gust MPH | rain 1hr in | rain 24hr in | rain mn in | humidity % | barometer mb |
| 20260505120055 | 64 | 132 | 0.0 | 2.0 | 0.00 | 0.00 | 0.00 | 59 | 1006.5 |
| 20260505114555 | 63 | 70 | 0.0 | 0.0 | 0.00 | 0.00 | 0.00 | 63 | 1006.6 |
| 20260505113109 | 65 | 293 | 0.0 | 0.0 | 0.00 | 0.00 | 0.00 | 58 | 1007.3 |
| 20260505111550 | 64 | 255 | 0.0 | 5.0 | 0.00 | 0.00 | 0.00 | 56 | 1006.8 |
| 20260505101545 | 63 | 310 | 0.0 | 3.0 | 0.00 | 0.00 | 0.00 | 57 | 1006.4 |
| 20260505100050 | 63 | 270 | 0.0 | 0.0 | 0.00 | 0.00 | 0.00 | 57 | 1006.2 |
| 20260505094545 | 62 | 328 | 0.0 | 1.0 | 0.00 | 0.00 | 0.00 | 57 | 1006.0 |
| 20260505093043 | 63 | 271 | 0.0 | 1.0 | 0.00 | 0.00 | 0.00 | 56 | 1006.0 |
| 20260505091555 | 63 | 293 | 0.0 | 1.0 | 0.00 | 0.00 | 0.00 | 55 | 1005.9 |
| 20260505090043 | 63 | 114 | 0.0 | 0.0 | 0.00 | 0.00 | 0.00 | 54 | 1005.7 |
| 20260505084540 | 64 | 268 | 0.0 | 6.0 | 0.00 | 0.00 | 0.00 | 53 | 1005.8 |
| 20260505083040 | 64 | 260 | 0.0 | 4.0 | 0.00 | 0.00 | 0.00 | 53 | 1005.7 |
| 20260505081539 | 64 | 284 | 0.0 | 9.0 | 0.00 | 0.00 | 0.00 | 52 | 1005.8 |
| 20260505080038 | 64 | 95 | 0.0 | 3.0 | 0.00 | 0.00 | 0.00 | 52 | 1005.9 |
| 20260505074536 | 64 | 271 | 0.0 | 8.0 | 0.00 | 0.00 | 0.00 | 52 | 1006.0 |
| 20260505073034 | 64 | 312 | 0.0 | 0.0 | 0.00 | 0.00 | 0.00 | 52 | 1006.0 |
| 20260505071532 | 64 | 262 | 0.0 | 6.0 | 0.00 | 0.00 | 0.00 | 51 | 1006.0 |
| 20260505070037 | 63 | 134 | 0.0 | 3.0 | 0.00 | 0.00 | 0.00 | 51 | 1006.0 |
| 20260505064529 | 63 | 259 | 0.0 | 7.0 | 0.00 | 0.00 | 0.00 | 51 | 1006.1 |
| 20260505063029 | 63 | 277 | 0.0 | 2.0 | 0.00 | 0.00 | 0.00 | 50 | 1006.0 |
| 20260505061538 | 63 | 276 | 0.0 | 8.0 | 0.00 | 0.00 | 0.00 | 50 | 1006.1 |
| 20260505060025 | 63 | 284 | 0.0 | 0.0 | 0.00 | 0.00 | 0.00 | 50 | 1006.1 |
| 20260505054524 | 63 | 186 | 0.0 | 7.0 | 0.00 | 0.00 | 0.00 | 50 | 1006.3 |
| 20260505053023 | 63 | 311 | 0.0 | 3.0 | 0.00 | 0.00 | 0.00 | 49 | 1006.4 |
| 20260505051538 | 63 | 293 | 0.0 | 2.0 | 0.00 | 0.00 | 0.00 | 49 | 1006.5 |
| 20260505041516 | 63 | 104 | 0.0 | 0.0 | 0.00 | 0.00 | 0.00 | 49 | 1006.4 |
| 20260505040015 | 63 | 275 | 0.0 | 0.0 | 0.00 | 0.00 | 0.00 | 48 | 1006.3 |
| 20260505034516 | 64 | 253 | 0.0 | 0.0 | 0.00 | 0.00 | 0.00 | 47 | 1006.3 |
| 20260505033013 | 65 | 305 | 0.0 | 2.0 | 0.00 | 0.00 | 0.00 | 46 | 1006.2 |
| 20260505031516 | 65 | 183 | 0.0 | 3.0 | 0.00 | 0.00 | 0.00 | 46 | 1006.2 |
| 20260505030011 | 65 | 93 | 0.0 | 9.0 | 0.00 | 0.00 | 0.00 | 45 | 1006.3 |
| 20260505024511 | 65 | 10 | 0.0 | 0.0 | 0.00 | 0.00 | 0.00 | 45 | 1006.5 |
| 20260505023010 | 65 | 292 | 0.0 | 9.0 | 0.00 | 0.00 | 0.00 | 44 | 1006.5 |
| 20260505021511 | 65 | 37 | 0.0 | 9.0 | 0.00 | 0.00 | 0.00 | 43 | 1006.6 |
| 20260505020009 | 66 | 275 | 0.0 | 0.0 | 0.00 | 0.00 | 0.00 | 42 | 1006.6 |
| 20260505014508 | 66 | 348 | 0.0 | 0.0 | 0.00 | 0.00 | 0.00 | 42 | 1006.6 |
| 20260505013007 | 67 | 281 | 0.0 | 1.0 | 0.00 | 0.00 | 0.00 | 41 | 1006.4 |
| 20260505011507 | 67 | 85 | 0.0 | 3.0 | 0.00 | 0.00 | 0.00 | 40 | 1006.4 |
| 20260505010006 | 67 | 229 | 0.0 | 2.0 | 0.00 | 0.00 | 0.00 | 40 | 1006.2 |
| 20260505004509 | 67 | 307 | 0.0 | 7.0 | 0.00 | 0.00 | 0.00 | 40 | 1006.0 |
| 20260505003017 | 68 | 277 | 0.0 | 8.0 | 0.00 | 0.00 | 0.00 | 39 | 1006.0 |
| 20260505001504 | 68 | 301 | 0.0 | 7.0 | 0.00 | 0.00 | 0.00 | 39 | 1005.9 |
| 20260505000005 | 69 | 102 | 0.0 | 1.0 | 0.00 | 0.00 | 0.00 | 38 | 1005.8 |
| 20260504234504 | 69 | 292 | 0.0 | 1.0 | 0.00 | 0.00 | 0.00 | 37 | 1005.7 |
| 20260504233003 | 70 | 266 | 0.0 | 7.0 | 0.00 | 0.00 | 0.00 | 36 | 1005.5 |
| 20260504231502 | 70 | 102 | 0.0 | 1.0 | 0.00 | 0.00 | 0.00 | 35 | 1005.5 |
| 20260504230002 | 71 | 272 | 0.0 | 5.0 | 0.00 | 0.00 | 0.00 | 34 | 1005.4 |
| 20260504224501 | 72 | 269 | 0.0 | 4.0 | 0.00 | 0.00 | 0.00 | 33 | 1005.3 |
| 20260504223100 | 72 | 321 | 1.0 | 11.0 | 0.00 | 0.00 | 0.00 | 33 | 1005.5 |
| 20260504221558 | 73 | 229 | 0.0 | 7.0 | 0.00 | 0.00 | 0.00 | 32 | 1005.3 |
| 20260504220057 | 73 | 293 | 0.0 | 11.0 | 0.00 | 0.00 | 0.00 | 32 | 1005.4 |
| 20260504214556 | 74 | 96 | 0.0 | 6.0 | 0.00 | 0.00 | 0.00 | 31 | 1005.5 |
| 20260504213053 | 73 | 280 | 0.0 | 6.0 | 0.00 | 0.00 | 0.00 | 32 | 1005.5 |
| 20260504211549 | 73 | 272 | 0.0 | 1.0 | 0.00 | 0.00 | 0.00 | 32 | 1005.6 |
| 20260504210104 | 72 | 176 | 1.0 | 11.0 | 0.00 | 0.00 | 0.00 | 32 | 1005.8 |
| 20260504204549 | 72 | 281 | 1.0 | 12.0 | 0.00 | 0.00 | 0.00 | 33 | 1006.1 |
| 20260504203055 | 72 | 281 | 0.0 | 10.0 | 0.00 | 0.00 | 0.00 | 34 | 1006.3 |
| 20260504201540 | 73 | 262 | 0.0 | 8.0 | 0.00 | 0.00 | 0.00 | 32 | 1006.4 |
| 20260504200037 | 71 | 264 | 0.0 | 12.0 | 0.00 | 0.00 | 0.00 | 33 | 1006.6 |
| 20260504194536 | 71 | 281 | 2.0 | 15.0 | 0.00 | 0.00 | 0.00 | 33 | 1006.8 |
| 20260504193033 | 71 | 277 | 0.0 | 10.0 | 0.00 | 0.00 | 0.00 | 34 | 1007.0 |
| 20260504191529 | 70 | 116 | 0.0 | 10.0 | 0.00 | 0.00 | 0.00 | 35 | 1007.1 |
| 20260504190029 | 71 | 316 | 2.0 | 8.0 | 0.00 | 0.00 | 0.00 | 34 | 1007.3 |
| 20260504184530 | 71 | 263 | 0.0 | 12.0 | 0.00 | 0.00 | 0.00 | 34 | 1007.5 |
| 20260504183031 | 70 | 109 | 1.0 | 8.0 | 0.00 | 0.00 | 0.00 | 35 | 1007.5 |
| 20260504181524 | 70 | 73 | 2.0 | 13.0 | 0.00 | 0.00 | 0.00 | 35 | 1007.6 |
| 20260504180023 | 70 | 265 | 1.0 | 11.0 | 0.00 | 0.00 | 0.00 | 35 | 1007.7 |
| 20260504174520 | 70 | 290 | 1.0 | 7.0 | 0.00 | 0.00 | 0.00 | 35 | 1008.0 |
| 20260504173018 | 69 | 117 | 3.0 | 12.0 | 0.00 | 0.00 | 0.00 | 35 | 1008.1 |
| 20260504171516 | 69 | 298 | 1.0 | 12.0 | 0.00 | 0.00 | 0.00 | 35 | 1008.2 |